Theta_e
334 336 336 337 339 339 339 338 336 334 333 333 333 332 330 330 331 331 331 343 347 352 357 359 357 356 355 353 351 350 352 354 353 351 350 349 349 350 350 349 349 349 349
335 335 336 337 338 339 339 338 335 334 333 335 336 337 337 337 338 339 341 341 347 350 352 354 356 357 357 356 354 351 350 351 353 353 351 349 349 349 350 350 349 349 348
334 335 336 337 339 339 338 337 336 337 337 341 338 338 340 340 341 339 334 339 341 347 351 352 353 353 355 357 357 355 351 350 351 352 351 350 349 348 349 350 350 350 348
337 334 335 338 340 339 339 339 338 337 335 333 338 340 341 341 342 339 337 336 337 339 342 346 351 354 355 354 354 355 354 352 349 349 350 350 350 349 348 349 350 350 349
343 339 337 341 344 342 340 337 335 333 330 329 333 338 336 334 335 335 331 333 333 334 336 342 345 344 343 343 345 347 347 348 349 349 350 351 351 350 349 348 349 349 349
344 344 343 345 344 339 336 333 331 329 326 327 328 334 335 333 333 331 329 333 331 331 331 333 334 334 338 339 341 341 344 345 348 347 348 348 349 350 350 349 349 348 348
344 344 345 344 341 338 336 333 332 329 326 329 329 328 327 325 325 327 326 327 329 329 330 331 331 331 329 333 337 339 345 348 351 351 346 346 346 350 350 350 349 348 347
346 344 342 344 339 337 334 334 331 330 328 333 327 322 320 318 321 324 321 325 325 328 327 328 329 330 330 330 332 338 340 346 346 350 347 344 345 347 348 348 349 348 347
349 347 346 345 343 341 339 337 334 332 331 331 331 324 314 313 313 318 321 323 322 321 320 321 327 329 331 331 332 332 340 343 345 347 346 345 346 346 347 346 346 346 346
349 349 349 346 343 342 340 338 338 334 330 328 324 325 319 315 314 312 314 317 318 317 315 318 318 322 326 327 333 337 338 338 341 341 341 342 343 345 346 346 345 345 345
348 348 346 344 343 342 340 337 336 333 332 327 322 320 318 316 315 311 310 310 310 313 313 315 314 317 318 323 327 332 334 334 334 334 336 338 340 341 342 343 343 343 345
344 345 347 345 344 340 338 335 334 334 330 325 323 321 317 314 311 310 308 309 307 309 311 312 311 310 314 317 330 334 330 328 328 328 330 332 335 337 340 341 342 343 344
336 338 338 338 338 335 336 333 330 328 327 324 322 321 318 315 313 312 308 306 306 306 307 309 311 309 312 314 322 331 332 327 325 325 324 326 327 330 333 335 337 338 340
329 330 333 334 335 336 333 329 325 324 323 324 323 319 318 317 314 312 310 306 302 303 304 307 307 309 311 311 320 329 325 324 323 321 321 321 323 325 327 329 330 331 332
327 325 328 327 328 329 328 325 323 323 322 321 321 320 319 318 317 315 311 309 307 302 302 306 306 310 311 311 319 321 318 320 322 320 320 319 319 321 323 324 324 325 326
320 320 321 322 322 324 324 324 323 322 320 320 320 320 318 320 319 319 317 313 311 310 308 308 309 309 311 314 317 320 317 321 320 320 319 318 317 318 319 320 321 321 322
315 317 318 318 318 318 319 318 319 324 323 323 324 323 322 322 319 318 318 317 314 312 310 313 311 313 311 312 314 317 318 315 316 318 318 317 316 316 316 316 317 318 320
312 313 314 315 316 315 315 314 315 317 317 317 319 319 320 322 317 317 315 315 314 315 314 314 312 310 310 313 312 312 315 318 316 318 317 316 316 316 316 315 314 315 314
308 308 309 310 311 312 313 312 312 311 309 309 310 309 309 309 307 309 311 313 314 317 313 312 314 312 313 312 312 312 312 313 314 319 317 316 316 317 315 315 313 313 312
304 305 306 307 307 308 308 307 307 306 304 305 306 307 308 307 306 306 306 306 308 309 310 311 313 314 313 314 311 311 313 309 311 315 317 315 316 317 316 313 314 316 311
301 301 301 302 302 305 306 302 302 301 300 300 301 303 304 307 310 309 307 305 304 303 304 305 306 306 307 308 309 310 309 311 308 309 308 310 312 312 311 311 315 314 309
296 297 297 298 297 300 300 301 301 297 297 297 296 299 301 304 304 307 308 308 307 302 300 301 302 300 301 305 306 308 307 304 305 308 306 308 311 310 309 310 310 310 306
292 292 292 294 293 294 297 297 300 296 294 294 294 295 296 299 301 300 302 303 304 304 305 303 301 301 301 302 303 304 306 307 307 307 306 305 304 306 308 311 308 305 305
288 288 289 290 290 292 295 295 295 293 293 293 293 294 294 295 296 297 297 298 299 301 302 303 304 304 304 304 305 305 306 306 306 305 305 304 305 306 307 309 307 306 303
287 288 290 290 291 291 294 294 294 295 295 295 296 297 296 296 297 296 296 295 295 297 301 301 300 299 297 297 300 304 304 303 302 306 306 305 308 304 306 308 309 304 301
290 291 291 292 293 292 294 294 294 295 294 295 296 296 297 296 295 294 294 293 294 296 297 298 299 300 299 301 300 301 300 298 300 302 308 307 308 307 305 313 309 309 308
Wind_Speed
4 3 4 3 4 3 4 4 3 4 5 6 6 6 5 5 5 3 3 10 10 10 12 14 14 15 15 13 13 14 14 15 15 16 14 16 16 15 13 13 12 12 11
5 5 4 5 5 5 4 4 4 5 5 4 6 5 5 6 6 5 4 5 10 10 11 14 14 12 12 12 13 14 15 15 15 16 17 14 12 15 15 15 14 13 12
6 6 5 4 7 5 4 4 5 4 4 3 5 5 5 6 4 5 4 4 4 7 11 13 14 13 14 12 12 14 14 14 14 17 15 14 16 18 16 16 16 15 14
7 6 5 7 6 4 4 3 3 3 3 4 3 4 3 4 4 3 1 2 3 2 3 6 9 12 10 8 10 10 9 13 15 15 14 15 16 15 16 16 16 16 15
8 7 5 5 5 4 4 3 3 2 2 3 4 4 2 2 2 1 2 2 1 2 3 6 7 7 5 7 10 12 10 10 11 14 15 17 17 17 18 18 16 16 16
8 6 4 6 3 2 3 2 3 2 2 4 3 4 3 2 0 1 2 2 3 4 3 3 3 4 9 10 9 15 13 13 14 14 14 15 17 18 18 16 17 17 17
9 9 4 5 5 6 6 6 2 5 4 4 2 2 2 3 2 2 3 3 4 4 4 4 3 3 3 6 5 9 11 12 13 12 11 12 15 16 17 17 17 18 18
10 5 6 7 7 5 5 6 5 3 3 4 3 1 3 3 3 3 3 3 4 3 5 5 5 5 4 3 4 10 11 12 12 11 8 6 9 11 13 17 18 18 18
5 8 10 9 7 6 6 6 6 6 4 3 4 3 0 5 1 2 3 3 4 2 4 5 5 5 5 4 5 6 10 10 11 10 9 7 9 9 11 10 11 14 16
6 7 11 10 9 7 7 7 6 5 4 5 1 3 2 4 4 3 2 3 4 4 4 3 4 4 5 4 5 6 6 8 9 9 7 6 7 6 4 7 10 12 12
6 9 8 9 9 8 9 7 6 6 5 4 4 2 1 2 3 3 3 3 3 4 4 3 4 3 4 4 4 4 3 1 2 6 9 9 8 9 9 9 8 8 8
3 6 8 9 8 6 6 5 6 7 5 4 4 4 5 4 4 3 1 4 3 4 3 3 4 3 4 3 5 3 1 3 3 3 4 6 8 10 9 8 9 11 11
3 6 5 5 4 5 6 5 6 6 6 6 6 5 3 4 4 4 3 3 4 3 4 4 4 4 4 3 5 7 6 4 6 7 7 6 9 11 11 9 8 10 12
4 5 5 4 4 5 5 5 3 4 4 4 7 5 4 4 4 4 5 5 2 3 2 7 3 4 4 5 7 9 6 7 9 10 8 7 8 9 12 11 9 10 11
4 6 7 5 6 5 5 3 4 6 4 5 6 6 5 4 4 4 4 4 6 4 5 5 4 4 5 4 7 6 6 8 10 12 10 8 9 9 11 11 10 10 11
6 6 7 6 5 6 6 5 4 3 4 3 3 5 5 3 4 4 5 4 4 6 6 5 5 6 4 4 8 6 7 9 10 12 11 9 9 9 10 11 12 11 11
6 6 6 6 6 6 5 3 4 5 4 4 4 5 7 4 4 4 4 4 5 4 7 5 5 4 4 7 7 5 6 6 7 11 11 9 9 9 9 7 9 11 9
7 6 6 5 4 4 4 3 3 4 5 5 6 4 6 2 3 4 3 5 4 6 6 13 6 5 7 7 6 6 7 6 5 9 11 10 11 9 8 7 8 7 8
9 10 10 9 9 8 7 6 4 3 2 2 2 3 4 4 4 4 3 4 3 4 4 5 7 3 5 3 5 5 6 5 4 10 11 12 12 11 9 8 8 8 7
6 7 7 7 8 7 6 7 6 5 5 4 4 4 5 5 6 5 4 6 5 5 4 4 6 6 5 6 4 5 8 3 6 4 8 9 9 9 9 8 8 7 9
7 6 6 6 6 6 5 8 6 6 5 6 5 5 5 7 12 8 5 5 6 5 4 4 5 3 3 3 5 4 6 5 3 4 4 4 4 4 5 6 7 9 11
8 8 8 8 8 7 10 11 5 5 5 5 6 6 6 12 10 12 12 11 7 4 4 4 5 5 5 4 3 4 4 3 6 4 4 5 4 5 5 5 7 9 9
5 6 6 6 9 7 13 12 13 8 7 8 9 9 9 8 11 9 12 16 16 16 17 12 13 12 12 9 6 11 11 8 8 5 4 6 3 6 5 4 5 5 8
6 6 6 6 6 7 13 13 15 9 7 8 8 8 7 7 7 9 9 10 10 9 8 6 9 10 10 9 8 9 11 9 6 4 4 7 2 4 3 3 2 7 7
6 6 7 8 9 9 13 13 11 7 7 7 6 7 7 8 11 13 9 9 9 10 9 13 14 14 15 16 13 8 8 7 9 8 4 4 5 4 3 2 3 1 4
8 8 10 9 13 10 14 14 12 6 7 6 7 8 13 13 14 13 9 8 10 10 8 8 7 9 12 11 15 13 10 12 10 8 8 7 6 4 3 2 2 3 1
Wind_Direction
208 217 240 241 243 225 223 233 241 251 251 246 247 250 261 265 276 276 276 286 284 253 245 241 238 241 236 238 236 237 231 228 219 223 223 215 209 221 219 236 238 235 241
200 204 218 230 238 218 224 199 222 243 253 258 265 261 279 286 275 278 272 302 290 273 258 261 265 269 261 247 240 239 236 228 227 226 226 218 216 233 227 222 233 234 235
206 207 211 225 239 220 222 214 233 234 250 286 276 280 265 269 268 262 286 288 293 270 260 261 267 262 260 257 245 236 233 237 232 231 229 219 216 222 221 226 226 228 226
217 217 216 234 242 210 207 203 207 236 232 233 260 282 279 301 267 217 225 357 325 336 316 330 295 273 281 261 253 251 248 236 231 234 232 219 224 224 226 227 226 228 223
216 222 228 243 238 207 200 216 191 191 245 257 270 255 273 306 337 99 85 231 276 355 9 352 347 1 337 301 302 292 279 267 252 244 233 221 220 222 224 225 227 227 223
213 217 217 239 217 185 200 201 225 209 204 235 238 279 292 238 142 205 265 260 330 355 353 304 286 282 289 297 307 310 299 291 273 258 248 228 218 217 225 226 227 226 225
215 217 207 201 206 207 195 194 182 233 226 234 244 312 282 0 223 191 256 246 333 312 322 341 324 299 296 279 291 312 300 315 320 304 250 233 222 220 221 227 229 227 226
216 207 201 216 209 217 215 190 183 214 238 199 146 161 330 328 5 261 294 314 280 314 329 330 324 319 317 305 283 314 318 327 336 337 344 289 236 238 233 225 228 230 230
202 180 199 208 216 211 211 210 193 206 213 222 206 137 175 233 9 325 319 277 319 304 314 323 332 337 325 318 331 323 323 329 345 347 339 322 278 257 258 252 237 239 237
201 194 209 203 209 203 221 213 193 180 172 199 256 217 261 152 176 314 316 307 306 284 300 309 316 329 336 337 337 321 310 333 349 4 18 18 5 10 332 278 262 246 248
224 199 211 213 205 209 218 207 188 194 195 167 181 180 38 18 55 125 260 278 310 274 273 264 290 309 323 332 316 286 287 295 358 3 359 358 348 324 318 313 308 287 263
258 228 218 224 220 217 217 220 218 220 203 191 186 180 160 167 193 158 213 264 246 292 288 276 269 268 288 298 273 241 280 349 22 1 352 322 318 313 300 291 289 296 283
339 308 256 216 229 229 229 214 200 226 199 190 188 217 203 197 156 154 150 230 240 292 310 273 257 255 265 258 262 264 260 278 303 300 306 310 313 314 309 300 291 290 287
340 315 306 307 283 259 231 202 201 228 196 212 235 213 211 202 179 160 169 149 248 277 304 252 285 253 259 249 250 256 263 280 285 284 283 288 292 293 299 304 295 285 282
15 21 14 350 323 307 286 281 271 250 196 216 222 206 209 206 186 190 185 172 163 213 241 264 241 261 255 246 247 235 248 254 255 264 264 278 283 289 286 286 290 271 273
21 8 16 29 23 29 0 333 301 328 291 288 277 251 235 235 195 195 210 195 199 210 250 205 245 236 261 260 256 237 245 263 264 262 259 267 269 285 275 279 284 284 276
21 13 13 20 25 29 26 360 326 316 328 310 290 279 260 251 289 254 235 228 218 211 244 251 235 258 265 257 263 252 246 260 267 267 264 270 277 270 274 278 287 279 289
0 356 354 356 355 4 333 354 341 320 307 317 302 317 304 339 270 271 258 256 233 227 236 261 221 234 223 247 241 253 259 252 248 266 263 259 262 262 270 266 263 297 288
13 9 8 4 356 353 340 343 338 347 342 311 358 344 314 330 314 292 289 273 261 258 226 257 278 235 250 270 275 254 248 261 251 254 266 259 251 253 244 259 282 285 289
31 13 7 7 3 341 357 358 357 355 346 344 330 314 288 271 264 279 270 266 265 253 238 239 262 266 234 248 227 248 264 231 262 266 264 263 250 240 261 265 279 285 300
14 9 9 6 1 337 359 347 338 343 338 328 325 312 308 305 304 288 280 269 260 252 239 239 252 232 233 226 217 233 252 257 268 232 263 265 242 244 259 283 285 290 301
355 350 344 334 328 323 325 317 302 293 286 284 288 283 270 290 281 270 270 267 238 243 250 241 254 232 228 229 241 255 261 245 266 213 203 261 189 245 247 231 252 275 309
304 295 292 284 292 284 292 284 281 281 277 279 265 268 270 271 279 277 271 270 263 258 251 254 255 253 258 242 233 251 254 255 257 258 181 248 189 230 235 237 232 314 299
291 288 281 274 276 282 294 296 298 292 279 272 266 269 263 276 266 265 272 273 271 263 257 253 257 260 259 258 239 242 246 253 265 258 179 252 224 247 277 230 248 298 308
321 312 311 311 309 301 298 300 303 296 286 278 267 266 262 268 269 268 277 274 273 266 256 250 251 257 260 262 255 275 266 253 261 259 204 209 246 243 232 222 169 71 345
323 325 316 311 307 305 304 297 295 292 291 291 288 277 265 259 263 264 265 262 266 265 259 257 249 248 248 250 242 237 239 242 243 261 228 214 232 181 241 183 175 184 146